sat.trackr.live / text

‹ back to catalog

KOREASAT 6

NORAD 37265 · 2010-070B

PAYLOAD ACTIVE UNKNOWN

§ Identity

Operator
Country
SKOR
Launch date
2010-12-29
Launch site
FRGUI
Launch vehicle
Mass (kg)
RCS (m²)
19.95

Purposes: comms

External: N2YO · Heavens-Above · Gunter

§ Orbital elements

Epoch: 2026-05-25T02:47:35.782368Z

Period
1,436.12 min
Inclination
0.0167°
Eccentricity
0.0002250
Mean motion
1.00270397 rev/d
Perigee alt
35,777.5 km
Apogee alt
35,796.5 km
Semi-major
42,165.1 km
B*
0.0000e+0
RAAN
290.9572°
Arg perigee
130.0584°
Mean anomaly
23.4712°
Rev number
5,653

§ Raw data

KOREASAT 61 37265U 10070B   26145.11638637 -.00000114  00000+0  00000+0 0  99992 37265   0.0167 290.9572 0002250 130.0584  23.4712  1.00270397 56530

JSON: /api/v1/satellites/37265 · /tle

For live sub-satellite position, see the globe view (requires WebGL).

§ Visibility from observer

Set your observer location to see the next 7 days of passes ≥ 10°. The values pass through the URL so the page stays shareable.

No JS? Fill the form by hand. The geolocation button needs JavaScript.